Location: Madrid
(40.4000°N, 3.6830°W)
Time: 21:10:57
(UTC+01:00)

ISS - Pass Details

Date: 23 March 2017
Orbit: 399 x 409 km, 51.6° (Epoch: 24 March)

Event Time Altitude Azimuth Distance (km) Brightness Sun altitude
Exits shadow 04:30:05 11° 85° (E) 1,400 -0.4 -30.4°
Drops below altitude 10° 04:30:13 10° 86° (E) 1,446 -0.3 -30.3°
Sets 04:32:34 0° 99° (E) 2,329 0.7 -30.0°
